Terminal Aerodrome Forecast
Issued by NWS Green Bay, WI

Home | Current Version | Previous Version | Graphics & Text | Print | Product List | Glossary On
Versions: 1 2 3 4 5 6 7 8 9 10 11 12 13 14 15 16 17 18 19 20 21 22 23 24 25 26 27 28 29 30 31 32 33 34 35 36 37 38 39 40 41 42 43 44
599
FTUS43 KGRB 232320
TAFGRB
TAF
KGRB 232320Z 2400/2424 07008KT P6SM SCT030 BKN140
     FM241000 10008KT P6SM SCT030 BKN090=

USA.gov is the U.S. government's official web portal to all federal, state and local government web resources and services.